Powrót do katalogu

COSMOS 2345

AktywnyNawigacjaMEO
NORAD 24894·PAYLOAD·🇷🇺 Russia

Wystrzelony Aug 14, 1997 z Baikonur Cosmodrome

Loading…

Następne Przeloty (najbliższe 24 godziny)

TLE

ŚwieżeSource: Space-Track

Epoka: Sep 14, 2026, 10:47 UTC

1 24894U 97041A   26257.44953712 -.00000068  00000-0  00000-0 0  9990
2 24894  14.4101 357.0703 0164853 302.2811  87.7644  1.00385227106550

Śledź COSMOS 2345 w czasie rzeczywistym z AllMySat

Download on the App Store